{"data":{"norad_id":62903,"intl_designator":"2025-026B","name":"COSMOS 2582","alt_names":[],"object_type":"PAYLOAD","status":"ACTIVE","operator":null,"country":"CIS","launch_date":"2025-02-05","launch_site_code":"PLMSC","launch_vehicle":null,"mission":null,"orbit_class":"UNKNOWN","rcs_meters":null,"size_class":null,"mass_kg":null,"dimensions":null,"purposes":[],"wikipedia_slug":null,"has_3d_model":false,"image_url":null,"decayed_at":null,"tle_current":{"epoch":"2026-09-22T17:36:45.628416Z","epoch_age_seconds":122928,"freshness":"FRESH","line1":"1 62903U 25026B   26265.73386144  .00000658  00000+0  57609-4 0  9991","line2":"2 62903  81.9981 334.9514 0011494  93.6069 266.6466 14.95186705 88782","mean_motion":14.95186705,"eccentricity":0.0011494,"inclination_deg":81.9981,"raan_deg":334.9514,"arg_perigee_deg":93.6069,"mean_anomaly_deg":266.6466,"bstar":5.7609e-5,"rev_number":8878,"period_min":96.309042555324,"perigee_km":573.7935526842,"apogee_km":589.79304044995,"semimajor_km":6959.9302965671,"source":"CELESTRAK","updated_at":"2026-09-23T09:00:21.691537Z"}}}